206  
ASUS42 KMHX 301222  
RWRMHX  
WEATHER ROUNDUP FOR EASTERN NORTH CAROLINA  
NATIONAL WEATHER SERVICE NEWPORT/MOREHEAD CITY NC  
800 AM EDT WED JUL 30 2014  
 
NOTE: "FAIR" INDICATES FEW OR NO CLOUDS BELOW 12,000 FEET  
WITH NO SIGNIFICANT WEATHER AND/OR S TO VISIBILITY
 
 
NCZ015>017-031-032-045>047-102-103-301300-  
NORTH COAST  
 
CITY SKY/WX TMP DP RH WIND PRES REMARKS
 
EDENTON SUNNY 67 61 83 N6 30.06R  
ELIZABETH CITY SUNNY 70 61 73 N7 30.05R  
KITTY HAWK SUNNY 74 60 60 N3 30.04R  
MANTEO NOT AVBL  
 

 
 
NCZ045>047-081-094-103-104-301300-  
CENTRAL COAST  
 
CITY SKY/WX TMP DP RH WIND PRES REMARKS
 
FRISCO SUNNY 76 62 62 NE6 30.03R  
SWANQUARTER N/A 73 N/A N/A N2 30.00S  
 

 
 
NCZ095-097-098-100-101-301300-  
SOUTHERN COAST  
 
CITY SKY/WX TMP DP RH WIND PRES REMARKS
 
BEAUFORT SUNNY 75 67 76 NE3 30.02R  
CEDAR ISLAND N/A 79 N/A N/A NE6G13 30.06S  
JACKSONVILLE SUNNY 72 67 84 CALM 30.03R  
NEWPORT NOT AVBL  
PINEY ISLAND SUNNY 79 65 62 NE8 30.02R  
WILMINGTON SUNNY 73 69 87 NE6 30.02R  
 

 
 
NCZ011>013-027>030-043-044-078>080-089-090>093-098-301300-  
COASTAL PLAIN  
 
CITY SKY/WX TMP DP RH WIND PRES REMARKS
 
AHOSKIE MOSUNNY 64 60 87 CALM 30.07R  
CLINTON SUNNY 69 66 90 NE3 30.05S  
ELIZABETHTOWN SUNNY 69 66 90 CALM 30.03R  
GOLDSBORO SUNNY 67 67 98 NE3 30.04R  
GREENVILLE SUNNY 66 64 94 NE5 30.07R  
HAVELOCK SUNNY 74 67 78 NE6 30.04R  
KENANSVILLE SUNNY 67 65 93 N5 30.05R  
KINSTON SUNNY 68 66 94 N6 30.06R  
NEW BERN SUNNY 75 63 66 NE5 30.04R  
RICHLANDS SUNNY 72 64 78 NE5 30.04R  
ROANOKE RAPIDS NOT AVBL  
ROCKY MOUNT PTSUNNY 67 62 84 N8 30.07R  
WASHINGTON SUNNY 66 64 92 N5 30.06R  
WHITEVILLE SUNNY 70 68 92 NE3 30.02R  
 

 
 
AMZ130-135-150-152-154-156-158-170-250-252-270-ANZ085-086-088-633-658-670-301300-  
MARINE OBSERVATIONS  
 
STATION/POSITION TIME TEMP WIND PRES WAVE SWELL
 
AIR SEA DIR/SP/G HT/PER HT/PER  
(UTC) (F) (DEG/KT/KT) (MB) (FT/S) (FT/S)  
CHESAPEAKE LIGHT NOT AVBL  
BUOY 44014 1200 74 78 350/ 10/ 12 1016.6 2/ 9 2/ 9  
DUCK 1200 74 75 10/ 8/ 11 1016.6  
2E DUCK 1200 N/A 2/15  
OREGON INLET 1200 76 78 30/ 8/ 11 1017.0  
BUOY 44095 1200 78 N/A 3/ 8  
20E OREGON INLET NOT AVBL  
HATTERAS CG 1200 77 79 40/ 8/ 11 1017.0  
DIAMOND BUOY 1200 VRB 12/ 16 1016.1 3/ 7 2/ 7  
CAPE LOOKOUT 1200 78 50/ 13/ 14 1016.3  
BEAUFORT LAB 1200 75 81 40/ 3/ 5 1016.1  
30 SE NEW RIVER 1200 79 81 60/ 12/ 16 1016.2 3/ 8 2/ 8  
5 SE WRIGHTSVILL 1200 76 81 70/ 10/ 12 N/A  
BUOY 41002 1126 80 80 240/ 8/ 10 1014.7 5/ 7 5/ 7  
BUOY 41004 1200 81 84 70/ 10/ 12 1014.6 2/ 8 2/ 8  
 

 
 
CLICK HERE TO GO TO PREVIOUS BULLETINS.

The Nexlab NC Page Main Text Page